User: anonymous   Login
Location: Vancouver
(49.2500°N, 123.1330°W)
Time: 17:48:20
(UTC-08:00)
Language:

Cosmos 1939 Rocket - Orbit

View from above orbital plane
View from above orbital plane
View from above satellite
View from above satellite

Ground track
Ground track

The orbit data is extracted from the following two-line orbital elements,

1 19046U 88032B   17328.58830656 +.00000262 +00000-0 +24012-4 0  9996
2 19046 097.5123 010.6967 0040047 145.3584 215.0262 15.02354262596438
Epoch (UTC): 24 November 2017 14:07:09
Eccentricity: 0.0040047
inclination: 97.5123°
perigee height: 532 km
apogee height: 587 km
right ascension of ascending node: 10.6967°
argument of perigee: 145.3584°
revolutions per day: 15.02354262
mean anomaly at epoch: 215.0262°
orbit number at epoch: 59643

The dashed part of the orbit path shows where the satellite is in the earth's shadow,  

DLR